CZ-6A DEB, 58433

Orbit data source: Space-Track

CZ-6A DEB, 58433 is space debris in SSO originally from a launch on Fri, 11 Nov 2022 UTC launched from the Taiyaun Space Center, China (TSC). Debris objects in space refer to the collection of defunct objects orbiting the Earth. Examples of debris include non-operational satellites, rocket bodies, and fragments generated from explosions, collisions, or faulty payload assembly.

Loading next visibility...
Identifier
58433, 2022-151AJB
Orbit
SSO
Country
Flag of CNCN / PRC
Related business
Manufacturer
SAST
Mission
Spacecraft
Bus & Motor
Unknown
Mass
Unknown
Launch date (UTC)
2022-11-11 (4 years ago)
Launch vehicle
Unknown
Launch site
Taiyaun Space Center, China (TSC)
Object type
Payload
Rocket body
Debris
Shape & HBR
Unknown shape, 0.1 m
Radar Cross Section
Small (<0.1 m²)

Expand to show TLE details & history
Last TLE update: 4 days ago

TLE from 4 days ago
0 CZ-6A DEB
1 58433U 22151AJB 26169.68130062  .00042221  00000-0  16621-2 0  9993
2 58433  98.7739 320.1854 0051104  72.5084 288.1726 15.24273081168538
Epoch: 2026-06-18T16:21Z
TLE epoch observation values (Epoch: 2026-06-18T16:21:04.373Z)
Latitude
0.00003°
Longitude
167.99604°
Altitude
485.231 km
Speed
7.629 km/s
True Right ascension
21h 20m 44s
True Declination
0° 00' 00"
Sunlit
Object was in full shadow at epoch
Visualization orbit readout
Latitude
Unknown
Longitude
Unknown
Altitude
Unknown
Speed
Unknown
Apparent Right ascension
Unknown
Apparent Declination
Unknown
Sunlit
N/A
Visualization observer readout
Local Sidereal Time
21:36:22
Azimuth
Unknown
Elevation
Unknown
Doppler factor
Unknown
Orbital elements
Apogee altitude
525.092 km
Perigee altitude
454.894 km
Semi-major axis
6,868.13 km
Eccentricity
0.00511
Inclination
98.7739°
RAAN
320.1854°
Arg. of periapsis
72.5084°
True anomaly
287.6151°
Mean anomaly
288.1726°
Eccentric anomaly
287.89396°
Mean motion
3.81316 °/min
Orbital period
94.41 mins
BSTAR
0.0016621
Loading maneuver chart data...
Computing Atmospheric mass density...
Loading historical data...
Loading historical data...
Loading historical data...
Loading historical data...
Loading historical data...
Loading historical data...
Loading historical data...

Documentation

Showing up to 5 results
|